Socorro, NM

11:03 PM MDT on September 25, 2016 (GMT -0600)
Socorro Municipal

Weather History for KONM - March, 2014

Change the Weather History Date:

Wednesday, March 12, 2014

  Actual Average Record
Temperature  
Mean Temperature 44 °F -  
Max Temperature 57 °F 66 °F 77 °F (2011)
Min Temperature 32 °F 30 °F 32 °F (2012)
Degree Days  
Heating Degree Days 20    
Moisture  
Dew Point 15 °F    
Average Humidity 32    
Maximum Humidity 51    
Minimum Humidity 17    
Precipitation  
Precipitation 0.00 in - - ()
Sea Level Pressure  
Sea Level Pressure 30.27 in    
Wind  
Wind Speed 7 mph (ESE)    
Max Wind Speed 13 mph    
Max Gust Speed 17 mph    
Visibility 10 miles    
Events      
Averages and records for this station are not official NWS values.
T = Trace of Precipitation, MM = Missing Value Source: NWS Daily Summary

Daily Weather History Graph

Daily Weather History Graph

Search for Another Location

Airport or City:

Trip Planner

Search our weather history database for the weather conditions in past years. The results will help you decide how hot, cold, wet, or windy it might be!

Date:

Astronomy

Mar. 12, 2014 Rise Set
Actual Time 7:22 AM MDT 7:13 PM MDT
Civil Twilight 6:57 AM MDT 7:38 PM MDT
Nautical Twilight 6:28 AM MDT 8:07 PM MDT
Astronomical Twilight 5:59 AM MDT 8:36 PM MDT
Moon 3:53 PM MDT (3/12) 4:47 AM MDT (3/12)
Length of Visible Light 12h 40m
Length of Day
11h 51m
Waxing Gibbous, 86% of the Moon is Illuminated
Mar 12
Waxing Gibbous
Mar 16
Full
Mar 23
Last Quarter
Mar 30
New
Apr 7
First Quarter

Hourly Weather History & Observations

Time (MDT) Temp. Windchill Dew Point Humidity Pressure Visibility Wind Dir Wind Speed Gust Speed Precip Events Conditions
12:15 AM 45.9 °F 42.3 °F 3.2 °F 17% 30.15 in 10.0 mi NE 6.9 mph - N/A   Clear
12:35 AM 45.9 °F 42.9 °F 9.9 °F 23% 30.15 in 10.0 mi NE 5.8 mph - N/A   Clear
12:55 AM 45.9 °F 41.7 °F 22.6 °F 40% 30.16 in 10.0 mi NE 8.1 mph - N/A   Clear
1:15 AM 45.0 °F 41.2 °F 22.6 °F 41% 30.18 in 10.0 mi NE 6.9 mph - N/A   Clear
1:35 AM 44.1 °F 40.1 °F 21.6 °F 41% 30.19 in 10.0 mi NE 6.9 mph - N/A   Clear
1:55 AM 42.8 °F 38.0 °F 21.0 °F 42% 30.20 in 10.0 mi NE 8.1 mph - N/A   Clear
2:15 AM 41.9 °F 37.5 °F 20.3 °F 42% 30.21 in 10.0 mi NE 6.9 mph - N/A   Clear
2:35 AM 41.2 °F 38.2 °F 20.1 °F 43% 30.22 in 10.0 mi NNE 4.6 mph - N/A   Clear
2:55 AM 40.3 °F 34.9 °F 20.1 °F 45% 30.23 in 10.0 mi East 8.1 mph - N/A   Clear
3:15 AM 40.5 °F 35.1 °F 19.6 °F 43% 30.23 in 10.0 mi East 8.1 mph - N/A   Clear
3:35 AM 39.9 °F 32.5 °F 19.2 °F 43% 30.24 in 10.0 mi ESE 12.7 mph 17.3 mph N/A   Clear
3:55 AM 39.4 °F 33.8 °F 18.9 °F 44% 30.24 in 10.0 mi ESE 8.1 mph - N/A   Clear
4:15 AM 38.8 °F 33.8 °F 18.5 °F 44% 30.25 in 10.0 mi ENE 6.9 mph - N/A   Clear
4:35 AM 37.9 °F 30.9 °F 18.5 °F 46% 30.26 in 10.0 mi East 10.4 mph - N/A   Clear
4:55 AM 37.4 °F 33.8 °F 18.1 °F 46% 30.27 in 10.0 mi East 4.6 mph - N/A   Clear
5:15 AM 35.8 °F 29.4 °F 18.1 °F 49% 30.28 in 10.0 mi East 8.1 mph - N/A   Clear
5:35 AM 35.6 °F 30.7 °F 17.8 °F 48% 30.28 in 10.0 mi ESE 5.8 mph - N/A   Clear
5:55 AM 34.9 °F 27.7 °F 17.8 °F 50% 30.30 in 10.0 mi ESE 9.2 mph - N/A   Clear
6:15 AM 34.2 °F 27.5 °F 17.6 °F 51% 30.32 in 10.0 mi East 8.1 mph - N/A   Clear
6:35 AM 34.7 °F 26.4 °F 17.1 °F 49% 30.33 in 10.0 mi East 11.5 mph - N/A   Clear
6:55 AM 34.2 °F 25.2 °F 16.9 °F 49% 30.34 in 10.0 mi East 12.7 mph - N/A   Clear
7:15 AM 33.8 °F 29.6 °F 16.5 °F 49% 30.34 in 10.0 mi ESE 4.6 mph - N/A   Clear
7:35 AM 32.5 °F - 16.0 °F 51% 30.35 in 10.0 mi Calm Calm - N/A   Clear
7:55 AM 33.6 °F 30.6 °F 15.8 °F 48% 30.36 in 10.0 mi NE 3.5 mph - N/A   Clear
8:15 AM 35.6 °F 31.7 °F 14.7 °F 42% 30.36 in 10.0 mi ESE 4.6 mph - N/A   Clear
8:35 AM 36.5 °F 32.7 °F 14.4 °F 40% 30.37 in 10.0 mi NE 4.6 mph - N/A   Clear
8:55 AM 37.8 °F 31.8 °F 13.8 °F 38% 30.38 in 10.0 mi NE 8.1 mph - N/A   Clear
9:15 AM 38.7 °F 32.9 °F 13.6 °F 36% 30.38 in 10.0 mi NNE 8.1 mph - N/A   Clear
9:35 AM 39.7 °F 34.3 °F 13.3 °F 34% 30.39 in 10.0 mi ENE 8.1 mph - N/A   Clear
9:55 AM 41.0 °F 39.0 °F 12.9 °F 32% 30.39 in 10.0 mi ENE 3.5 mph - N/A   Clear
10:15 AM 41.5 °F 37.1 °F 13.5 °F 32% 30.39 in 10.0 mi ENE 6.9 mph - N/A   Clear
10:35 AM 42.8 °F 40.1 °F 13.5 °F 30% 30.39 in 10.0 mi NE 4.6 mph - N/A   Clear
10:55 AM 43.9 °F 39.9 °F 13.3 °F 29% 30.38 in 10.0 mi ENE 6.9 mph - N/A   Clear
11:15 AM 44.4 °F 41.2 °F 13.5 °F 29% 30.38 in 10.0 mi WNW 5.8 mph - N/A   Clear
11:35 AM 45.7 °F 44.4 °F 11.7 °F 25% 30.37 in 10.0 mi NE 3.5 mph - N/A   Clear
12:15 PM 48.6 °F - 10.2 °F 21% 30.35 in 10.0 mi NNE 8.1 mph - N/A   Clear
12:35 PM 50.2 °F - 10.2 °F 20% 30.34 in 10.0 mi East 6.9 mph - N/A   Clear
12:55 PM 51.1 °F - 10.4 °F 20% 30.33 in 10.0 mi Calm Calm - N/A   Clear
1:15 PM 51.8 °F - 11.5 °F 20% 30.32 in 10.0 mi ENE 3.5 mph - N/A   Clear
1:35 PM 52.3 °F - 12.0 °F 20% 30.30 in 10.0 mi North 3.5 mph - N/A   Clear
1:55 PM 53.2 °F - 12.9 °F 20% 30.29 in 10.0 mi South 3.5 mph - N/A   Clear
2:15 PM 54.5 °F - 13.5 °F 20% 30.28 in 10.0 mi East 9.2 mph - N/A   Clear
2:35 PM 53.8 °F - 13.5 °F 20% 30.26 in 10.0 mi SE 8.1 mph - N/A   Clear
2:55 PM 55.8 °F - 13.8 °F 19% 30.25 in 10.0 mi South 9.2 mph - N/A   Clear
3:15 PM 54.5 °F - 13.5 °F 20% 30.24 in 10.0 mi SE 4.6 mph - N/A   Clear
3:35 PM 55.9 °F - 14.5 °F 20% 30.24 in 10.0 mi NE 4.6 mph - N/A   Clear
3:55 PM 57.2 °F - 14.4 °F 19% 30.23 in 10.0 mi Calm Calm - N/A   Clear
4:15 PM 57.6 °F - 14.9 °F 19% 30.23 in 10.0 mi SSW 5.8 mph - N/A   Clear
4:35 PM 56.3 °F - 15.3 °F 20% 30.22 in 10.0 mi SSE 5.8 mph - N/A   Clear
4:55 PM 57.4 °F - 15.6 °F 19% 30.21 in 10.0 mi ESE 8.1 mph - N/A   Clear
5:15 PM 56.7 °F - 16.2 °F 20% 30.21 in 10.0 mi East 4.6 mph - N/A   Clear
5:35 PM 55.8 °F - 16.0 °F 21% 30.21 in 10.0 mi East 5.8 mph - N/A   Clear
5:55 PM 54.9 °F - 16.0 °F 22% 30.21 in 10.0 mi South 3.5 mph - N/A   Clear
6:15 PM 54.7 °F - 15.8 °F 22% 30.21 in 10.0 mi SSE 4.6 mph - N/A   Clear
6:35 PM 54.5 °F - 15.6 °F 22% 30.21 in 10.0 mi South 3.5 mph - N/A   Clear
6:55 PM 54.1 °F - 16.2 °F 22% 30.21 in 10.0 mi SE 4.6 mph - N/A   Clear
7:15 PM 52.5 °F - 16.2 °F 24% 30.21 in 10.0 mi SE 4.6 mph - N/A   Clear
7:35 PM 49.8 °F - 15.6 °F 26% 30.21 in 10.0 mi SSE 4.6 mph - N/A   Clear
7:55 PM 48.4 °F - 15.4 °F 27% 30.22 in 10.0 mi SSE 3.5 mph - N/A   Clear
8:15 PM 46.2 °F 44.1 °F 14.4 °F 28% 30.22 in 10.0 mi South 4.6 mph - N/A   Clear
8:35 PM 44.2 °F 41.8 °F 13.5 °F 29% 30.23 in 10.0 mi SSW 4.6 mph - N/A   Clear
8:55 PM 45.1 °F 40.8 °F 14.5 °F 29% 30.24 in 10.0 mi South 8.1 mph - N/A   Clear
9:15 PM 47.5 °F - 15.8 °F 28% 30.24 in 10.0 mi SSE 6.9 mph - N/A   Clear
9:35 PM 45.5 °F 41.8 °F 15.6 °F 30% 30.24 in 10.0 mi South 6.9 mph - N/A   Clear
9:55 PM 43.5 °F 40.1 °F 14.9 °F 32% 30.25 in 10.0 mi South 5.8 mph - N/A   Clear
10:15 PM 43.2 °F 39.7 °F 15.3 °F 32% 30.25 in 10.0 mi SSE 5.8 mph - N/A   Clear
10:35 PM 41.5 °F 36.4 °F 15.1 °F 34% 30.25 in 10.0 mi SSE 8.1 mph - N/A   Clear
10:55 PM 42.1 °F 37.1 °F 16.0 °F 35% 30.25 in 10.0 mi SSE 8.1 mph - N/A   Clear
11:15 PM 41.2 °F 36.6 °F 15.6 °F 36% 30.25 in 10.0 mi South 6.9 mph - N/A   Clear
11:35 PM 41.9 °F 36.3 °F 15.8 °F 35% 30.25 in 10.0 mi South 9.2 mph - N/A   Clear
11:55 PM 41.4 °F 35.7 °F 15.4 °F 35% 30.25 in 10.0 mi South 9.2 mph - N/A   Clear